Other Public Products
Issued by NWS Charleston, SC

Current Version | Previous Version | Graphics & Text | Print | Product List | Glossary On
Versions: 1 2 3 4 5 6 7 8 9 10 11 12 13 14 15 16 17 18 19 20 21 22 23 24 25 26 27 28 29 30 31 32 33 34 35 36 37 38 39 40 41 42 43 44 45 46 47 48 49 50
533
FPUS82 KCHS 210825
OPUCHS

TEST...KCHS/KSAV Gateway Observations...TEST
National Weather Service Charleston SC
400 AM EDT THU SEP 21 2017

NOTE: "fair" indicates few or no clouds below 12,000 feet with no
significant weather and/or obstructions to visibility.

SCZ050-WAZ558-NCZ071-TXZ119-213-PAZ071-DCZ001-FLZ074-172-MI076-
NYZ176-178-MAZ016-IL014-TNZ027-NJZ106-GAZ044-MD014-210900-

...Gateway Observations for Charleston International...

CITY           SKY/WX    TMP DP  RH WIND       PRES   REMARKS
Chas Airport   CLEAR     73  73 100 CALM      29.99F
Seattle        CLOUDY    51  48  89 SE6       29.85R
Charlotte      PTCLDY    70  67  90 NW3       30.02F
Dallas DFW     MOCLDY    82  74  76 S15G21    29.87S
Dallas Love    MOCLDY    82  73  74 S16       29.89S
Philladelphia  PTCLDY    71  63  75 NW5       29.98R
Wash National  CLEAR     69  63  81 NW7       29.99S
Baltimore      CLEAR     65  63  93 CALM      29.98F
Miami          PTCLDY    82  76  81 CALM      29.93F
Detroit        CLOUDY    67  67 100 E3        30.05F FOG
Newark         MOCLDY    73  64  73 N14       29.95R
Laguardia      CLOUDY    73  66  78 N13       29.94R
J F K          CLOUDY    74  64  71 N14       29.94R
Boston Logan   CLOUDY    71  63  75 N26G32    29.88S
Ft. Lauderdale PTCLDY    81  78  91 NW3       29.92F
Chicago O`Hare CLOUDY    75  67  76 S6        29.94F
Chicago Midway CLOUDY    77  68  73 CALM      29.95S
Houston Bush   PTCLDY    79  76  90 S5        29.94F
Houston Hobby  PTCLDY    81  77  88 SE5       29.94F
Nashville      CLEAR     72  68  87 E5        30.04S
Atlanta        CLEAR     71  67  87 NW5       30.04S

$$

GAZ044-118-TXZ119-213-NCZ071-DCZ001-MDZ014-506-PAZ021-071-NJZ106-
NYZ176-178-MAZ106-OHZ011-021-055-MIZ076-KYZ091-ILZ014-INZ047-
MNZ060-ONZ431-210900-

...Gateway Observations for Savannah International...

CITY           SKY/WX    TMP DP  RH WIND       PRES   REMARKS
Savannah Arpt  CLEAR     72  70  93 CALM      30.00F
Atlanta        CLEAR     71  67  87 NW5       30.04S
Charlotte      PTCLDY    70  67  90 NW3       30.02F
Dallas DFW     MOCLDY    82  74  76 S15G21    29.87S
Houston Bush   PTCLDY    79  76  90 S5        29.94F
Wash National  CLEAR     69  63  81 NW7       29.99S
Wash Dulles    CLEAR     60  60 100 CALM      30.01R
Baltimore      CLEAR     65  63  93 CALM      29.98F
Philadelphia   PTCLDY    71  63  75 NW5       29.98R
Newark         MOCLDY    73  64  73 N14       29.95R
Laguardia      CLOUDY    73  66  78 N13       29.94R
J F K          CLOUDY    74  64  71 N14       29.94R
Boston         CLOUDY    71  63  75 N26G32    29.88S
Pittsburg      CLEAR     65  64  97 W6        30.10R
Akron          CLEAR     67  63  87 CALM      30.09F
Cleveland      PTCLDY    67  62  84 CALM      30.09S
Cincinnati     CLEAR     67  67 100 S3        30.06S
Columbus       CLEAR     63  63 100 CALM      30.07R
Detroit        CLOUDY    67  67 100 E3        30.05F FOG
Chicago O`Hare CLOUDY    75  67  76 S6        29.94F
Minneapolis    CLEAR     58  54  86 CALM      29.99F
Indianapolis   CLEAR     71  69  93 SE6       30.02F
Toronto Canada CLEAR     64  59  82 E3        30.10R

$$




USA.gov is the U.S. government's official web portal to all federal, state and local government web resources and services.